OAL951 LGAV-HELX

Flight info

Callsign OAL951
Flight time N/A
Altitude 35000
Route KEA UL607 SIT L607 NABSI P557 OBRAN L321 REXUM M872 SEMRU A727 LXR
Aircraft B738/M-SDE2E3FGHIRWXY/LB1

Departure

Time 2026-05-05 19:12
Airport Athens Eleftherios Venizelos International Airport (LGAV)

Arrival

Time N/A
Airport Luxor International Airport (HELX)
Time Latitude Longitude Altitude Speed Heading
2026-05-05 18:54 37.93020 23.94326 300 ft 0 kts 38°
2026-05-05 19:05 37.93012 23.94319 300 ft 2 kts 38°
2026-05-05 19:05 37.93002 23.94308 302 ft 2 kts 38°
2026-05-05 19:05 37.92991 23.94298 302 ft 2 kts 37°
2026-05-05 19:05 37.92980 23.94288 301 ft 2 kts 37°
2026-05-05 19:06 37.92970 23.94277 300 ft 2 kts 57°
2026-05-05 19:06 37.92964 23.94262 302 ft 2 kts 87°
2026-05-05 19:06 37.92965 23.94246 299 ft 2 kts 117°
2026-05-05 19:06 37.92966 23.94241 300 ft 0 kts 126°
2026-05-05 19:08 37.92963 23.94247 302 ft 3 kts 126°
2026-05-05 19:08 37.92932 23.94282 300 ft 10 kts 139°
2026-05-05 19:08 37.92878 23.94361 300 ft 11 kts 127°
2026-05-05 19:09 37.92834 23.94434 304 ft 10 kts 134°
2026-05-05 19:09 37.92769 23.94443 301 ft 10 kts 205°
2026-05-05 19:09 37.92713 23.94392 302 ft 10 kts 216°
2026-05-05 19:09 37.92660 23.94342 304 ft 9 kts 217°
2026-05-05 19:10 37.92607 23.94293 304 ft 9 kts 217°
2026-05-05 19:10 37.92551 23.94302 303 ft 9 kts 136°
2026-05-05 19:10 37.92540 23.94319 306 ft 0 kts 127°
2026-05-05 19:10 37.92537 23.94324 307 ft 4 kts 127°
2026-05-05 19:11 37.92502 23.94384 307 ft 11 kts 126°
2026-05-05 19:11 37.92504 23.94470 307 ft 11 kts 49°
2026-05-05 19:11 37.92564 23.94528 306 ft 12 kts 37°
2026-05-05 19:11 37.92701 23.94658 302 ft 51 kts 37°
2026-05-05 19:12 37.93181 23.95113 291 ft 119 kts 37°
2026-05-05 19:12 37.93999 23.95873 335 ft 166 kts 36°
2026-05-05 19:12 37.94929 23.96765 958 ft 171 kts 37°
2026-05-05 19:12 37.95912 23.97744 1555 ft 182 kts 38°
2026-05-05 19:13 37.96887 23.98704 2399 ft 179 kts 36°
2026-05-05 19:13 37.97975 23.99739 2633 ft 211 kts 36°
2026-05-05 19:13 37.99212 24.00909 2886 ft 233 kts 36°
2026-05-05 19:13 38.00535 24.02174 3428 ft 243 kts 36°
2026-05-05 19:14 38.01892 24.03475 4173 ft 245 kts 36°
2026-05-05 19:14 38.03243 24.04773 5007 ft 243 kts 36°
2026-05-05 19:14 38.04595 24.06075 5763 ft 245 kts 35°
2026-05-05 19:14 38.05960 24.07387 6512 ft 246 kts 35°
2026-05-05 19:15 38.07299 24.08725 7291 ft 246 kts 43°
2026-05-05 19:15 38.08258 24.10552 7948 ft 254 kts 64°
2026-05-05 19:15 38.08819 24.12715 8534 ft 263 kts 69°
2026-05-05 19:15 38.09066 24.15086 8956 ft 284 kts 96°
2026-05-05 19:16 38.08449 24.17509 9617 ft 292 kts 107°
2026-05-05 19:16 38.07444 24.19783 10215 ft 305 kts 131°
2026-05-05 19:16 38.05616 24.21292 10437 ft 330 kts 161°
2026-05-05 19:16 38.03309 24.21759 10626 ft 350 kts 173°
2026-05-05 19:17 38.00839 24.22114 10957 ft 364 kts 173°
2026-05-05 19:17 37.98305 24.22500 11530 ft 369 kts 173°
2026-05-05 19:17 37.95749 24.22910 12210 ft 371 kts 172°
2026-05-05 19:17 37.93175 24.23340 12883 ft 375 kts 172°
2026-05-05 19:18 37.90574 24.23786 13545 ft 380 kts 172°
2026-05-05 19:18 37.87943 24.24244 14170 ft 384 kts 172°
2026-05-05 19:18 37.85285 24.24711 14786 ft 388 kts 172°
2026-05-05 19:18 37.82596 24.25184 15391 ft 392 kts 172°
2026-05-05 19:19 37.79876 24.25662 15991 ft 397 kts 173°
2026-05-05 19:19 37.77123 24.26146 16580 ft 402 kts 173°
2026-05-05 19:19 37.74339 24.26635 17181 ft 406 kts 173°
2026-05-05 19:19 37.71522 24.27129 17768 ft 411 kts 173°
2026-05-05 19:20 37.68679 24.27627 18346 ft 415 kts 174°
2026-05-05 19:20 37.65799 24.28132 18849 ft 419 kts 174°
2026-05-05 19:20 37.62893 24.28641 19342 ft 424 kts 174°
2026-05-05 19:20 37.59960 24.29154 19869 ft 427 kts 174°
2026-05-05 19:21 37.57007 24.29690 20391 ft 432 kts 171°
2026-05-05 19:21 37.54152 24.30927 20864 ft 440 kts 150°
2026-05-05 19:21 37.51550 24.32985 21408 ft 442 kts 148°
2026-05-05 19:21 37.48949 24.35092 21866 ft 447 kts 148°
2026-05-05 19:22 37.46321 24.37211 22304 ft 452 kts 148°
2026-05-05 19:22 37.43654 24.39340 22781 ft 455 kts 148°
2026-05-05 19:22 37.40961 24.41472 23229 ft 459 kts 148°
2026-05-05 19:22 37.38242 24.43611 23652 ft 464 kts 149°
2026-05-05 19:23 37.35492 24.45766 24006 ft 468 kts 149°
2026-05-05 19:23 37.32721 24.47932 24385 ft 471 kts 149°
2026-05-05 19:23 37.29932 24.50111 24762 ft 474 kts 149°
2026-05-05 19:23 37.27127 24.52299 25123 ft 477 kts 149°
2026-05-05 19:24 37.25257 24.53758 25354 ft 479 kts 149°
2026-05-05 19:24 37.22417 24.55973 25705 ft 482 kts 149°
2026-05-05 19:24 37.19558 24.58200 26048 ft 485 kts 149°
2026-05-05 19:24 37.16687 24.60435 26387 ft 488 kts 149°
2026-05-05 19:25 37.13793 24.62687 26710 ft 491 kts 149°
2026-05-05 19:25 37.10879 24.64951 27037 ft 494 kts 149°
2026-05-05 19:25 37.07943 24.67231 27355 ft 497 kts 149°
2026-05-05 19:25 37.04995 24.69517 27676 ft 500 kts 149°
2026-05-05 19:26 37.02030 24.71816 27987 ft 503 kts 149°
2026-05-05 19:26 36.99042 24.74130 28299 ft 506 kts 149°
2026-05-05 19:26 36.96042 24.76452 28601 ft 509 kts 149°
2026-05-05 19:26 36.93023 24.78785 28893 ft 511 kts 149°
2026-05-05 19:27 36.89991 24.81130 29181 ft 514 kts 149°
2026-05-05 19:27 36.86946 24.83493 29448 ft 516 kts 149°
2026-05-05 19:27 36.83891 24.85866 29774 ft 518 kts 149°
2026-05-05 19:27 36.80829 24.88245 30069 ft 520 kts 149°
2026-05-05 19:28 36.77748 24.90635 30291 ft 522 kts 149°
2026-05-05 19:28 36.74656 24.93030 30526 ft 524 kts 149°
2026-05-05 19:28 36.71558 24.95427 30837 ft 524 kts 148°
2026-05-05 19:28 36.68466 24.97812 31195 ft 522 kts 149°
2026-05-05 19:29 36.65374 25.00184 31539 ft 521 kts 149°
2026-05-05 19:29 36.62283 25.02547 31840 ft 522 kts 148°
2026-05-05 19:29 36.59177 25.04917 32030 ft 524 kts 148°
2026-05-05 19:29 36.56084 25.07277 32419 ft 521 kts 148°
2026-05-05 19:30 36.53039 25.09599 32846 ft 518 kts 148°
2026-05-05 19:30 36.49930 25.11970 33166 ft 517 kts 148°
2026-05-05 19:30 36.46900 25.14279 33409 ft 518 kts 148°
2026-05-05 19:30 36.43828 25.16618 33668 ft 518 kts 148°
2026-05-05 19:31 36.40758 25.18953 33980 ft 517 kts 148°
2026-05-05 19:31 36.37692 25.21283 34267 ft 516 kts 148°
2026-05-05 19:31 36.34633 25.23605 34566 ft 514 kts 148°
2026-05-05 19:31 36.31598 25.25907 34985 ft 507 kts 149°
2026-05-05 19:32 36.25506 25.30525 35084 ft 512 kts 149°
2026-05-05 19:32 36.19462 25.35094 35085 ft 510 kts 149°
2026-05-05 19:33 36.13445 25.39635 35070 ft 505 kts 149°
2026-05-05 19:33 36.07449 25.44153 35088 ft 504 kts 149°
2026-05-05 19:34 36.01473 25.48651 35079 ft 502 kts 150°
2026-05-05 19:35 35.92528 25.55373 35083 ft 501 kts 150°
2026-05-05 19:35 35.86567 25.59842 35087 ft 502 kts 150°
2026-05-05 19:36 35.80595 25.64311 35106 ft 503 kts 150°
2026-05-05 19:36 35.74607 25.68785 35079 ft 504 kts 150°
2026-05-05 19:37 35.68614 25.73254 35088 ft 504 kts 150°
2026-05-05 19:37 35.62607 25.77725 35084 ft 505 kts 150°
2026-05-05 19:38 35.56599 25.82190 35087 ft 505 kts 150°
2026-05-05 19:38 35.50581 25.86654 35084 ft 505 kts 150°
2026-05-05 19:39 35.44561 25.91112 35083 ft 505 kts 150°
2026-05-05 19:39 35.38538 25.95564 35105 ft 505 kts 150°
2026-05-05 19:40 35.32521 26.00004 35098 ft 505 kts 151°
2026-05-05 19:40 35.26502 26.04438 35089 ft 505 kts 151°
2026-05-05 19:41 35.20528 26.08831 35078 ft 504 kts 151°
2026-05-05 19:41 35.14520 26.13242 35094 ft 504 kts 151°
2026-05-05 19:42 35.08508 26.17648 35083 ft 504 kts 150°
2026-05-05 19:42 35.02865 26.22709 35097 ft 504 kts 140°
2026-05-05 19:43 34.97579 26.28340 35101 ft 505 kts 140°
2026-05-05 19:43 34.92296 26.33966 35085 ft 504 kts 140°
2026-05-05 19:44 34.86979 26.39528 35092 ft 504 kts 141°
2026-05-05 19:44 34.81646 26.45052 35090 ft 504 kts 141°
2026-05-05 19:45 34.76302 26.50572 35089 ft 504 kts 141°
2026-05-05 19:45 34.70954 26.56090 35090 ft 504 kts 141°
2026-05-05 19:46 34.65601 26.61608 35064 ft 505 kts 141°
2026-05-05 19:46 34.60245 26.67119 35100 ft 505 kts 141°
2026-05-05 19:47 34.54880 26.72631 35101 ft 506 kts 141°
2026-05-05 19:47 34.54006 26.73527 35102 ft 506 kts 141°